Regional Weather Roundup
Issued by NWS

Home | Current Version | Previous Version | Text Only | Print | Product List | Glossary On
Versions: 1 2 3 4 5 6 7 8 9 10 11 12 13 14 15 16 17 18 19 20 21 22 23 24 25 26 27
000
ASUS42 KKEY 272110
RWRKEY

FLORIDA REGIONAL WEATHER ROUNDUP FOR THE FLORIDA KEYS
NATIONAL WEATHER SERVICE KEY WEST FLORIDA
500 PM EDT MON MAR 27 2017

...SOUTH FLORIDA AND THE KEYS...

CITY           SKY/WX    TMP DP  RH WIND       PRES   REMARKS
FORT MYERS     MOSUNNY   86  53  32 E6        29.98F
SW REGIONAL AP MOSUNNY   83  51  33 SE5       29.99F
NAPLES         MOSUNNY   77  62  59 W10       30.00F
MIAMI          MOSUNNY   81  60  48 NE13G20   30.00F
WEST KENDALL   MOSUNNY   79  61  53 E14       30.00F
HOMESTEAD      SUNNY     79  64  61 E13       30.00F
MARATHON       SUNNY     82  63  52 E12G17    29.99F
BOCA CHICA NAS MOSUNNY   78  65  63 NE8       29.99F
KEY WEST INTL  MOSUNNY   81  66  60 NE10      29.99F

...INTERNATIONAL WEATHER...

CITY           SKY/WX    TMP DP  RH WIND       PRES   REMARKS
NASSAU BAHAMAS MOSUNNY   82  59  44 NE9       30.01F
CANCUN MEXICO  PTSUNNY   82  68  61 SE18      29.94F
COZUMEL MEXICO PTSUNNY   84  68  58 SE21      29.91F

ADJACENT COASTAL WATERS...

STATION/POSITION TIME  SKY/WX   TEMP    WIND        PRES    WAVE
                                AIR SEA DIR/SP/G            HT/PER
                 (UTC)          (F)     (DEG/KT/KT) (MB)    (FT/S)
PULASKI SHOAL LI 2100            73      60/ 13/ 14 1015.9F
SAND KEY         2050            75      40/ 12/ 13 1016.1F
LONG KEY         2000            76 77  100/  8/ 10 1016.7F
MOLASSES REEF    2100            76 77   90/ 10/ 11 1016.2F
FOWEY ROCKS      2100            75 76   60/ 15/ 17 1016.6F
Buoy 42097       2100                                 N/A     2/ 5

$$




USA.gov is the U.S. government's official web portal to all federal, state and local government web resources and services.